HST,Max TemperatureF,Mean TemperatureF,Min TemperatureF,Max Dew PointF,MeanDew PointF,Min DewpointF,Max Humidity, Mean Humidity, Min Humidity, Max Sea Level PressureIn, Mean Sea Level PressureIn, Min Sea Level PressureIn, Max VisibilityMiles, Mean VisibilityMiles, Min VisibilityMiles, Max Wind SpeedMPH, Mean Wind SpeedMPH, Max Gust SpeedMPH,PrecipitationIn, CloudCover, Events, WindDirDegrees
2014-4-1,75,72,68,72,70,66,100,91,82,30.11,30.05,30.00,10,6,0,20,6,25,5.11,8,Rain,263
2014-4-2,80,74,67,72,70,67,100,86,71,30.16,30.12,30.07,10,8,2,15,6,18,0.17,7,Rain,324
2014-4-3,82,76,70,71,68,65,100,79,58,30.18,30.13,30.06,10,9,2,18,9,23,0.05,7,Rain,102
2014-4-4,80,73,65,69,66,64,100,84,67,30.13,30.07,30.00,10,9,3,15,6,19,0.14,7,Rain,220
2014-4-5,82,73,64,68,65,60,100,76,51,30.05,30.00,29.94,10,10,10,21,9,28,0.00,4,,187
2014-4-6,81,73,65,70,66,61,93,77,60,30.08,30.01,29.96,10,10,10,9,5,12,0.00,5,,320
2014-4-7,80,73,65,70,67,62,100,84,67,30.08,30.05,29.99,10,8,2,17,7,23,0.29,7,Rain,355
2014-4-8,75,71,67,66,63,58,87,76,64,30.11,30.06,30.02,10,10,4,21,13,26,0.05,8,Rain,355
2014-4-9,78,73,67,63,60,57,87,68,48,30.11,30.06,30.01,10,10,10,16,10,21,0.01,6,Rain,345
2014-4-10,76,70,63,66,62,57,87,76,64,30.09,30.05,29.99,10,10,10,14,6,16,T,8,Rain,282
2014-4-11,81,74,67,65,64,61,84,71,58,30.12,30.06,30.01,10,10,10,15,7,19,0.00,7,Rain,277
2014-4-12,79,73,66,68,66,64,100,84,67,30.12,30.07,30.02,10,9,4,17,8,22,0.17,6,Rain,322
2014-4-13,79,73,67,70,67,63,100,84,67,30.17,30.12,30.07,10,8,2,18,10,27,0.99,7,Rain,20
2014-4-14,80,76,71,65,63,62,73,66,58,30.17,30.13,30.08,10,10,9,17,12,24,0.00,4,Rain,8
2014-4-15,79,73,67,70,66,62,90,79,67,30.11,30.07,30.01,10,8,2,20,12,27,0.10,6,Rain,346
2014-4-16,81,73,65,71,67,64,100,84,67,30.14,30.09,30.04,10,10,2,16,6,19,0.23,5,Rain,317
2014-4-17,81,74,66,71,68,64,100,84,67,30.13,30.09,30.03,10,9,2,15,5,18,0.52,6,Rain,216
2014-4-18,82,75,68,71,68,65,100,84,67,30.14,30.10,30.06,10,10,3,18,8,22,0.15,5,Rain,79
2014-4-19,80,73,65,71,67,62,100,81,62,30.16,30.10,30.04,10,8,2,21,5,24,0.31,7,Rain,252
2014-4-20,80,74,68,70,69,66,93,82,71,30.17,30.13,30.09,10,9,2,13,7,15,0.10,7,Rain,300
2014-4-21,81,75,69,72,69,67,100,85,69,30.18,30.13,30.09,10,9,2,13,6,16,0.41,6,Rain,314
2014-4-22,81,74,67,71,68,66,100,81,62,30.16,30.11,30.05,10,10,7,14,5,17,0.10,6,Rain,2
2014-4-23,82,74,65,70,66,59,93,80,67,30.14,30.08,30.03,10,10,7,17,8,22,0.03,6,Rain,249
2014-4-24,81,74,67,72,67,64,100,84,67,30.16,30.12,30.06,10,9,2,14,6,17,0.06,7,Rain,251
2014-4-25,77,73,69,71,69,68,100,87,74,30.18,30.13,30.09,10,8,2,21,6,25,0.54,7,Rain,278
2014-4-26,79,73,66,70,68,65,97,82,67,30.14,30.10,30.05,10,9,2,16,6,21,0.27,7,Rain,279
2014-4-27,81,75,68,70,68,64,100,86,71,30.08,30.03,29.96,10,10,5,14,5,17,0.07,5,Rain,198
2014-4-28,82,75,67,69,66,61,87,75,62,30.02,29.99,29.94,10,10,3,12,6,14,0.01,7,Rain,310
2014-4-29,79,74,69,69,67,64,100,85,69,30.04,29.99,29.95,10,10,10,17,8,20,0.00,7,,336
2014-4-30,79,73,67,71,68,65,100,88,76,30.06,30.02,29.98,10,8,2,18,9,24,0.16,8,Rain,350